Regional Weather Roundup
Issued by NWS

Home | Current Version | Previous Version | Text Only | Print | Product List | Glossary On
Versions: 1 2 3 4 5 6 7 8 9 10 11 12 13 14 15 16 17 18 19 20 21 22 23 24 25 26 27 28 29 30 31 32 33 34 35 36 37 38 39 40 41 42 43 44 45 46 47 48 49 50
000
ASUS45 KPSR 020910
RWRAZ

ARIZONA HOURLY REGIONAL WEATHER ROUNDUP
NATIONAL WEATHER SERVICE PHOENIX AZ
200 AM MST TUE JUN 02 2015

NOTE: FAIR INDICATES FEW OR NO CLOUDS BELOW 12,000 FEET WITH NO
SIGNIFICANT WEATHER AND/OR OBSTRUCTIONS TO VISIBILITY.

AZZ001>003-036-021000-
NORTHWEST ARIZONA

CITY           SKY/WX    TMP DP  RH WIND       PRES   REMARKS
BULLHEAD CITY  PTCLDY    84  25  11 S10       29.78R
KINGMAN        PTCLDY    67  20  16 SE12      29.95S
$$

AZZ004>008-015-016-018-021000-
NORTH CENTRAL ARIZONA

CITY           SKY/WX    TMP DP  RH WIND       PRES   REMARKS
GRAND CANYON   PTCLDY    37  25  61 CALM      30.18S
WILLIAMS       PTCLDY    54  19  26 S7        30.25S
PRESCOTT       PTCLDY    67  20  16 SW10      30.09F
FLAGSTAFF      PTCLDY    41  24  51 CALM      30.21F
PAYSON         MOCLDY    63  23  22 CALM      30.14S
PAGE           CLEAR     74  21  13 S7        29.98S
$$

AZZ009>014-017-021000-
NORTHEAST ARIZONA

CITY           SKY/WX    TMP DP  RH WIND       PRES   REMARKS
WINSLOW        PTCLDY    54  22  28 CALM      30.09F
SAINT JOHNS    MOCLDY    58  19  22 S3        30.15S
WINDOW ROCK    MOCLDY    55  21  26 CALM      30.21S
SHOW LOW       MOCLDY    55  21  26 S9        30.21F
$$

AZZ023-021000-
GREATER PHOENIX AREA

CITY           SKY/WX    TMP DP  RH WIND       PRES   REMARKS
PHOENIX        MOCLDY    85  33  15 NE3       29.83S
BUCKEYE        CLEAR     72  27  18 NW3       29.85S
LUKE AFB       CLEAR     79  34  19 S6        29.83S
DEER VALLEY    CLEAR     74  27  17 CALM      29.86R
SCOTTSDALE     PTCLDY    78  37  22 CALM      29.88R
MESA-GATEWAY   PTCLDY    72  36  26 E9        29.89R
$$

AZZ027-028-021000-
SOUTHWEST MARICOPA COUNTY AND PINAL COUNTY

CITY           SKY/WX    TMP DP  RH WIND       PRES   REMARKS
CASA GRANDE    PTCLDY    73  34  23 CALM      29.88R
GILA BEND      FAIR      79  39  23 SW7       29.84S
$$

AZZ503-504-507>509-021000-
SOUTHEAST ARIZONA

CITY           SKY/WX    TMP DP  RH WIND       PRES   REMARKS
TUCSON         PTCLDY    73  27  18 S3        30.00S
DAVIS-MONTHAN  CLEAR     71  29  21 SE7       29.99S
NOGALES        PTCLDY    66  29  24 E3        30.08F
SIERRA VISTA   CLEAR     73  24  16 VRB3      30.13S
DOUGLAS        CLEAR     66  24  20 N9        30.09F
SAFFORD        PTCLDY    78  24  13 NW8       29.98S
$$

AZZ020-021-025-026-031-021000-
SOUTHWEST ARIZONA

CITY           SKY/WX    TMP DP  RH WIND       PRES   REMARKS
YUMA           CLEAR     78  30  17 W7        29.82S
$$

CAZ031-033-041-043-047-048-061-021000-
SOUTHERN CALIFORNIA

CITY           SKY/WX    TMP DP  RH WIND       PRES   REMARKS
DOWNTOWN L.A.  CLEAR     62  56  80 CALM      29.98F
L.A. AIRPORT   PTCLDY    60  56  86 CALM      29.99S
SAN DIEGO      MOCLDY    63  55  77 CALM      30.02F
BURBANK        CLEAR     61  54  77 E6        29.98F
ONTARIO        PTCLDY    59  53  80 W5        29.99F
RIVERSIDE      CLEAR     61  54  77 W3        29.99F
PALM SPRINGS   CLEAR     77  36  22 SE3       29.82S
EL CENTRO NAS  CLEAR     77  19  11 W16       29.83S
IMPERIAL       CLEAR     75  24  15 W12       29.80F
BLYTHE         CLEAR     75  44  33 S6        29.80R
NEEDLES        PTCLDY    84  28  13 W12       29.79S
$$

NVZ020-UTZ003-021000-
SOUTHERN NEVADA-UTAH

CITY           SKY/WX    TMP DP  RH WIND       PRES   REMARKS
LAS VEGAS      PTCLDY    78  34  20 S20G30    29.80S
SALT LAKE CITY PTCLDY    63  52  67 CALM      29.88S
$$

NMZ009-TXZ055-021000-
NEW MEXICO-WEST TEXAS

CITY           SKY/WX    TMP DP  RH WIND       PRES   REMARKS
ALBUQUERQUE    PTCLDY    66  44  45 N6        30.14F
EL PASO        PTCLDY    75  45  34 S5        30.03S
$$


........................KEY........................
SKY/WX - SKY CONDITION/WEATHER
TMP    - TEMPERATURE IN FAHRENHEIT
DP     - DEW POINT IN FAHRENHEIT
RH     - RELATIVE HUMIDITY IN PERCENT
WIND   - DIRECTION AND SPEED IN MILES PER HOUR (MPH)
VRB    - VARIABLE WIND DIRECTION
PRES   - MEAN SEA LEVEL PRESSURE IN INCHES OF MERCURY
         F - FALLING PRESSURE   R - RISING PRESSURE
         S - STEADY PRESSURE
VSB    - VISIBILITY IN MILES
HX     - HEAT INDEX IN FAHRENHEIT
WCI    - WIND CHILL INDEX IN FAHRENHEIT
TC     - TEMPERATURE IN CELSIUS WHICH IS ALSO KNOWN AS
         TEMPERATURE IN CENTIGRADE
AFB    - AIR FORCE BASE
         LUKE AFB IS LUKE AIR FORCE BASE
         DAVIS-MONTHAN IS DAVIS-MONTHAN AIR FORCE BASE
NAS    - NAVAL AIR STATION
         EL CENTRO NAS IS EL CENTRO NAVAL AIR STATION
N/A    - NOT AVAILABLE



USA.gov is the U.S. government's official web portal to all federal, state and local government web resources and services.